User: anonymous   Login
Location: Juzet
(42.9779°N, 0.7597°E)
Time: 09:08:42
(UTC+00:00)
Language:

Cosmos 1674 Rocket - Orbit

View from above orbital plane
View from above orbital plane
View from above satellite
View from above satellite

Ground track
Ground track

The orbit data is extracted from the following two-line orbital elements,

1 15945U 85069B   20271.87745484 +.00000083 +00000-0 +71271-5 0  9995
2 15945 082.5247 090.3447 0018225 287.2834 072.6387 14.84045810877722
Epoch (UTC): 27 September 2020 21:03:32
Eccentricity: 0.0018225
inclination: 82.5247°
perigee height: 604 km
apogee height: 629 km
right ascension of ascending node: 90.3447°
argument of perigee: 287.2834°
revolutions per day: 14.84045810
mean anomaly at epoch: 72.6387°
orbit number at epoch: 87772

The dashed part of the orbit path shows where the satellite is in the earth's shadow,  

DLR